Location: Heidgraben
(53.7081°N, 9.6576°E)
Time: 04:15:07
(UTC+00:00)

Cosmos 2151 - Pass Details

Date: 05 July 2020
Orbit: 580 x 602 km, 82.5° (Epoch: 06 August)

Event Time Altitude Azimuth Distance (km) Brightness Sun altitude
Exits shadow 23:23:49 13° 222° (SW) 1,742 4.9 -13.6°
Maximum altitude 23:27:18 39° 289° (WNW) 912 4.1 -13.6°
Drops below altitude 10° 23:31:20 10° 359° (N) 1,942 7.1 -13.6°
Sets 23:33:41 0° 7° (N) 2,845 8.4 -13.6°
